START_TIME,STEP,MOV.,M15,t_acc.,M20,t_acc.
1986-01-26 09:00:45.210 ,1,0,0.,24.0,0.,24.0
1986-01-26 09:01:09.210 ,0,1,0.,24.0,0.,24.0
1986-01-26 09:01:33.210 ,0,0,1.,24.0,0.,24.0
1986-01-26 09:01:57.210 ,0,1,1.,24.0,0.,24.0
1986-01-26 09:02:21.210 ,0,0,0.,24.0,0.,24.0
1986-01-26 09:02:45.210 ,1,1,1.,24.0,0.,24.0
1986-01-26 09:03:09.210 ,1,0,0.,24.0,0.,24.0
1986-01-26 09:03:33.210 ,2,1,0.,24.0,0.,24.0
1986-01-26 09:03:57.210 ,2,0,0.,24.0,0.,24.0
1986-01-26 09:04:21.210 ,3,1,0.,24.0,0.,24.0
1986-01-26 09:04:45.210 ,3,0,0.,24.0,0.,24.0
1986-01-26 09:05:09.210 ,4,1,0.,24.0,0.,24.0
1986-01-26 09:05:33.210 ,4,0,0.,24.0,0.,24.0
1986-01-26 09:05:57.210 ,5,1,0.,24.0,0.,24.0
1986-01-26 09:06:21.210 ,5,0,0.,24.0,0.,24.0
1986-01-26 09:06:45.210 ,6,1,0.,24.0,0.,24.0
1986-01-26 09:07:09.210 ,6,0,0.,24.0,0.,24.0
1986-01-26 09:07:33.210 ,7,1,0.,24.0,0.,24.0
1986-01-26 09:07:57.210 ,7,0,0.,24.0,0.,24.0
1986-01-26 09:08:21.210 ,7,1,0.,24.0,0.,24.0
1986-01-26 09:08:45.210 ,7,0,0.,24.0,0.,24.0
1986-01-26 09:09:09.210 ,6,1,0.,24.0,0.,24.0
1986-01-26 09:09:33.210 ,6,0,1.,24.0,0.,24.0
1986-01-26 09:09:57.210 ,5,1,0.,24.0,0.,24.0
1986-01-26 09:10:21.210 ,5,0,0.,24.0,0.,24.0
1986-01-26 09:10:45.210 ,4,1,0.,24.0,0.,24.0
1986-01-26 09:11:09.210 ,4,0,0.,24.0,0.,24.0
1986-01-26 09:11:33.210 ,3,1,0.,24.0,0.,24.0
1986-01-26 09:11:57.210 ,3,0,0.,24.0,0.,24.0
1986-01-26 09:12:21.210 ,0,0,0.,24.0,0.,24.0
1986-01-26 09:12:45.210 ,0,0,1.,24.0,0.,24.0
1986-01-26 09:13:09.210 ,1,1,0.,24.0,0.,24.0
1986-01-26 09:13:33.210 ,1,0,0.,24.0,0.,24.0
1986-01-26 09:13:57.210 ,0,1,0.,24.0,0.,24.0
1986-01-26 09:14:21.210 ,0,0,0.,24.0,0.,24.0
1986-01-26 09:14:45.210 ,0,1,0.,24.0,0.,24.0
1986-01-26 09:15:09.210 ,0,0,0.,24.0,0.,24.0
1986-01-26 09:15:33.210 ,1,1,0.,24.0,0.,24.0
1986-01-26 09:15:57.210 ,1,0,0.,24.0,0.,24.0
1986-01-26 09:16:21.210 ,2,1,0.,24.0,0.,24.0
1986-01-26 09:16:45.210 ,2,0,0.,24.0,0.,24.0
1986-01-26 09:17:09.210 ,3,1,0.,24.0,0.,24.0
1986-01-26 09:17:33.210 ,3,0,0.,24.0,0.,24.0
1986-01-26 09:17:57.210 ,4,1,0.,24.0,0.,24.0
1986-01-26 09:18:21.210 ,4,0,0.,24.0,0.,24.0
1986-01-26 09:18:45.210 ,5,1,1.,24.0,0.,24.0
1986-01-26 09:19:09.210 ,5,0,0.,24.0,0.,24.0
1986-01-26 09:19:33.210 ,6,1,0.,24.0,0.,24.0
1986-01-26 09:19:57.210 ,6,0,1.,24.0,0.,24.0
1986-01-26 09:20:21.210 ,7,1,0.,24.0,0.,24.0
1986-01-26 09:20:45.210 ,7,0,0.,24.0,0.,24.0
1986-01-26 09:21:09.210 ,7,1,0.,24.0,0.,24.0
1986-01-26 09:21:33.210 ,7,0,0.,24.0,0.,24.0
1986-01-26 09:21:57.210 ,6,1,0.,24.0,0.,24.0
1986-01-26 09:22:21.210 ,6,0,0.,24.0,0.,24.0
1986-01-26 09:22:45.210 ,5,1,1.,24.0,0.,24.0
1986-01-26 09:23:09.210 ,5,0,0.,24.0,0.,24.0
1986-01-26 09:23:33.210 ,4,1,0.,24.0,0.,24.0
1986-01-26 09:23:57.210 ,4,0,0.,24.0,0.,24.0
1986-01-26 09:24:21.210 ,3,1,0.,24.0,0.,24.0
1986-01-26 09:24:45.210 ,3,0,0.,24.0,0.,24.0
1986-01-26 09:25:09.210 ,2,1,0.,24.0,0.,24.0
1986-01-26 09:25:33.210 ,2,0,0.,24.0,0.,24.0
1986-01-26 09:25:57.210 ,1,1,1.,24.0,0.,24.0
1986-01-26 09:26:21.210 ,1,0,0.,24.0,0.,24.0
1986-01-26 09:26:45.210 ,0,1,1.,24.0,0.,24.0
1986-01-26 09:27:09.210 ,0,0,0.,24.0,0.,24.0
1986-01-26 09:27:33.210 ,0,1,1.,24.0,0.,24.0
1986-01-26 09:27:57.210 ,0,0,0.,24.0,0.,24.0
1986-01-26 09:28:21.210 ,1,1,0.,24.0,0.,24.0
1986-01-26 09:28:45.210 ,1,0,0.,24.0,0.,24.0
1986-01-26 09:29:09.210 ,2,1,0.,24.0,0.,24.0
1986-01-26 09:29:33.210 ,2,0,0.,24.0,0.,24.0
1986-01-26 09:29:57.210 ,3,1,0.,24.0,0.,24.0
1986-01-26 09:30:21.210 ,3,0,0.,24.0,0.,24.0
1986-01-26 09:30:45.210 ,4,1,0.,24.0,0.,24.0
1986-01-26 09:31:09.210 ,4,0,0.,24.0,0.,24.0
1986-01-26 09:31:33.210 ,5,1,0.,24.0,0.,24.0
1986-01-26 09:31:57.210 ,5,0,1.,24.0,0.,24.0
1986-01-26 09:32:21.210 ,6,1,0.,24.0,0.,24.0
1986-01-26 09:32:45.210 ,6,0,1.,24.0,0.,24.0
1986-01-26 09:33:09.210 ,7,1,0.,24.0,0.,24.0
1986-01-26 09:33:33.210 ,7,0,0.,24.0,0.,24.0
1986-01-26 09:33:57.210 ,7,1,0.,24.0,0.,24.0
1986-01-26 09:34:21.210 ,7,0,0.,24.0,0.,24.0
1986-01-26 09:34:45.200 ,6,1,0.,24.0,0.,24.0
1986-01-26 09:35:09.200 ,6,0,1.,24.0,0.,24.0
1986-01-26 09:35:33.200 ,5,1,0.,24.0,0.,24.0
1986-01-26 09:35:57.200 ,5,0,0.,24.0,0.,24.0
1986-01-26 09:36:21.200 ,4,1,1.,24.0,0.,24.0
1986-01-26 09:36:45.200 ,4,0,0.,24.0,0.,24.0
1986-01-26 09:37:09.200 ,3,1,0.,24.0,0.,24.0
1986-01-26 09:37:33.200 ,3,0,0.,24.0,0.,24.0
1986-01-26 09:37:57.200 ,2,1,0.,24.0,0.,24.0
1986-01-26 09:38:21.200 ,2,0,0.,24.0,0.,24.0
1986-01-26 09:38:45.200 ,1,1,1.,24.0,0.,24.0
1986-01-26 09:39:09.200 ,1,0,0.,24.0,0.,24.0
1986-01-26 09:39:33.200 ,0,1,1.,24.0,0.,24.0
1986-01-26 09:39:57.200 ,0,0,0.,24.0,0.,24.0
1986-01-26 09:40:21.200 ,0,1,0.,24.0,0.,24.0
1986-01-26 09:40:45.200 ,0,0,0.,24.0,0.,24.0
1986-01-26 09:41:09.200 ,1,1,0.,24.0,0.,24.0
1986-01-26 09:41:33.200 ,1,0,0.,24.0,0.,24.0
1986-01-26 09:41:57.200 ,2,1,0.,24.0,0.,24.0
1986-01-26 09:42:21.200 ,2,0,0.,24.0,0.,24.0
1986-01-26 09:42:45.200 ,3,1,1.,24.0,0.,24.0
1986-01-26 09:43:09.200 ,3,0,0.,24.0,0.,24.0
1986-01-26 09:43:33.200 ,4,1,1.,24.0,0.,24.0
1986-01-26 09:43:57.200 ,4,0,0.,24.0,0.,24.0
1986-01-26 09:44:21.200 ,5,1,0.,24.0,0.,24.0
1986-01-26 09:44:45.200 ,5,0,0.,24.0,0.,24.0
1986-01-26 09:45:09.200 ,6,1,0.,24.0,0.,24.0
1986-01-26 09:45:33.200 ,6,0,0.,24.0,0.,24.0
1986-01-26 09:45:57.200 ,7,1,1.,24.0,0.,24.0
1986-01-26 09:46:21.200 ,7,0,1.,24.0,0.,24.0
1986-01-26 09:46:45.200 ,7,1,0.,24.0,0.,24.0
1986-01-26 09:47:09.200 ,7,0,0.,24.0,0.,24.0
1986-01-26 09:47:33.200 ,6,1,0.,24.0,0.,24.0
1986-01-26 09:47:57.200 ,6,0,1.,24.0,0.,24.0
1986-01-26 09:48:21.200 ,5,1,0.,24.0,0.,24.0
1986-01-26 09:48:45.200 ,5,0,0.,24.0,0.,24.0
1986-01-26 09:49:09.200 ,4,1,0.,24.0,0.,24.0
1986-01-26 09:49:33.200 ,4,0,0.,24.0,0.,24.0
1986-01-26 09:49:57.200 ,3,1,0.,24.0,0.,24.0
1986-01-26 09:50:21.200 ,3,0,0.,24.0,0.,24.0
1986-01-26 09:50:45.200 ,2,1,0.,24.0,0.,24.0
1986-01-26 09:51:09.200 ,2,0,0.,24.0,0.,24.0
1986-01-26 09:51:33.200 ,1,1,0.,24.0,0.,24.0
1986-01-26 09:51:57.200 ,1,0,0.,24.0,0.,24.0
1986-01-26 09:52:21.200 ,0,1,0.,24.0,0.,24.0
1986-01-26 09:52:45.200 ,0,0,0.,24.0,0.,24.0
1986-01-26 09:53:09.200 ,0,1,0.,24.0,0.,24.0
1986-01-26 09:53:33.200 ,0,0,0.,24.0,0.,24.0
1986-01-26 09:53:57.200 ,1,1,0.,24.0,0.,24.0
1986-01-26 09:54:21.200 ,1,0,0.,24.0,0.,24.0
1986-01-26 09:54:45.200 ,2,1,0.,24.0,0.,24.0
1986-01-26 09:55:09.200 ,2,0,0.,24.0,0.,24.0
1986-01-26 09:55:33.200 ,3,1,0.,24.0,0.,24.0
1986-01-26 09:55:57.200 ,3,0,0.,24.0,0.,24.0
1986-01-26 09:56:21.200 ,4,1,0.,24.0,0.,24.0
1986-01-26 09:56:45.200 ,4,0,0.,24.0,0.,24.0
1986-01-26 09:57:09.200 ,5,1,0.,24.0,0.,24.0
1986-01-26 09:57:33.200 ,5,0,2.,24.0,0.,24.0
1986-01-26 09:57:57.200 ,6,1,0.,24.0,0.,24.0
1986-01-26 09:58:21.200 ,6,0,0.,24.0,0.,24.0
1986-01-26 09:58:45.200 ,7,1,0.,24.0,0.,24.0
1986-01-26 09:59:09.200 ,7,0,0.,24.0,0.,24.0
1986-01-26 09:59:33.200 ,7,1,0.,24.0,0.,24.0
1986-01-26 09:59:57.200 ,7,0,0.,24.0,0.,24.0
1986-01-26 10:00:21.200 ,6,1,0.,24.0,0.,24.0
1986-01-26 10:00:45.200 ,6,0,0.,24.0,0.,24.0
1986-01-26 10:01:09.200 ,5,1,0.,24.0,0.,24.0
1986-01-26 10:01:33.200 ,5,0,0.,24.0,0.,24.0
1986-01-26 10:01:57.200 ,4,1,1.,24.0,0.,24.0
1986-01-26 10:02:21.200 ,4,0,0.,24.0,0.,24.0
1986-01-26 10:02:45.200 ,3,1,0.,24.0,0.,24.0
1986-01-26 10:03:09.200 ,3,0,0.,24.0,0.,24.0
1986-01-26 10:03:33.200 ,2,1,0.,24.0,0.,24.0
1986-01-26 10:03:57.200 ,2,0,0.,24.0,0.,24.0
1986-01-26 10:04:21.200 ,1,1,0.,24.0,0.,24.0
1986-01-26 10:04:45.200 ,1,0,0.,24.0,0.,24.0
1986-01-26 10:05:09.200 ,0,1,0.,24.0,0.,24.0
1986-01-26 10:05:33.200 ,0,0,0.,24.0,0.,24.0
1986-01-26 10:05:57.200 ,0,1,0.,24.0,0.,24.0
1986-01-26 10:06:21.200 ,0,0,0.,24.0,0.,24.0
1986-01-26 10:06:45.200 ,1,1,1.,24.0,0.,24.0
1986-01-26 10:07:09.200 ,1,0,0.,24.0,0.,24.0
1986-01-26 10:07:33.200 ,2,1,0.,24.0,0.,24.0
1986-01-26 10:07:57.200 ,2,0,1.,24.0,0.,24.0
1986-01-26 10:08:21.200 ,3,1,0.,24.0,0.,24.0
1986-01-26 10:08:45.200 ,3,0,1.,24.0,0.,24.0
1986-01-26 10:09:09.200 ,4,1,0.,24.0,0.,24.0
1986-01-26 10:09:33.200 ,4,0,0.,24.0,0.,24.0
1986-01-26 10:09:57.200 ,5,1,1.,24.0,0.,24.0
1986-01-26 10:10:21.200 ,0,0,1.,24.0,0.,24.0
1986-01-26 10:11:11.000 ,0,0,0.,24.0,0.,24.0
1986-01-26 10:11:33.200 ,7,1,0.,24.0,0.,24.0
1986-01-26 10:11:57.200 ,7,0,0.,24.0,0.,24.0
1986-01-26 10:12:21.200 ,7,1,1.,24.0,0.,24.0
1986-01-26 10:12:45.200 ,7,0,0.,24.0,0.,24.0
1986-01-26 10:13:09.200 ,6,1,0.,24.0,0.,24.0
1986-01-26 10:13:33.200 ,6,0,0.,24.0,0.,24.0
1986-01-26 10:13:57.200 ,5,1,0.,24.0,0.,24.0
1986-01-26 10:14:21.200 ,5,0,0.,24.0,0.,24.0
1986-01-26 10:14:45.200 ,4,1,0.,24.0,0.,24.0
1986-01-26 10:15:09.200 ,4,0,0.,24.0,0.,24.0
1986-01-26 10:15:33.200 ,0,0,,0,,0
1986-01-26 10:15:57.200 ,0,0,,0,,0
1986-01-26 10:15:57.200 ,3,0,0.,24.0,0.,24.0
1986-01-26 10:16:21.200 ,2,1,0.,24.0,0.,24.0
1986-01-26 10:16:45.200 ,2,0,0.,24.0,0.,24.0
1986-01-26 10:17:09.200 ,1,1,0.,24.0,0.,24.0
1986-01-26 10:17:33.200 ,1,0,0.,24.0,0.,24.0
1986-01-26 10:17:57.200 ,0,1,0.,24.0,0.,24.0
1986-01-26 10:18:21.200 ,0,0,0.,24.0,0.,24.0
1986-01-26 10:18:45.200 ,0,1,0.,24.0,0.,24.0
1986-01-26 10:19:09.200 ,0,0,0.,24.0,0.,24.0
1986-01-26 10:19:33.200 ,1,1,1.,24.0,0.,24.0
1986-01-26 10:19:57.200 ,1,0,0.,24.0,0.,24.0
1986-01-26 10:20:21.200 ,2,1,1.,24.0,0.,24.0
1986-01-26 10:20:45.200 ,2,0,0.,24.0,0.,24.0
1986-01-26 10:21:09.200 ,3,1,1.,24.0,0.,24.0
1986-01-26 10:21:33.200 ,3,0,0.,24.0,0.,24.0
1986-01-26 10:21:57.200 ,4,1,0.,24.0,0.,24.0
1986-01-26 10:22:21.200 ,4,0,0.,24.0,0.,24.0
1986-01-26 10:22:45.200 ,5,1,1.,24.0,0.,24.0
1986-01-26 10:23:09.200 ,5,0,0.,24.0,0.,24.0
1986-01-26 10:23:33.200 ,6,1,0.,24.0,0.,24.0
1986-01-26 10:23:57.200 ,6,0,0.,24.0,0.,24.0
1986-01-26 10:24:21.200 ,7,1,0.,24.0,0.,24.0
1986-01-26 10:24:45.200 ,7,0,0.,24.0,0.,24.0
1986-01-26 10:25:09.200 ,7,1,0.,24.0,0.,24.0
1986-01-26 10:25:33.200 ,7,0,0.,24.0,0.,24.0
1986-01-26 10:25:57.200 ,6,1,1.,24.0,0.,24.0
1986-01-26 10:26:21.200 ,6,0,0.,24.0,0.,24.0
1986-01-26 10:26:45.200 ,5,1,0.,24.0,0.,24.0
1986-01-26 10:27:09.200 ,5,0,0.,24.0,0.,24.0
1986-01-26 10:27:33.200 ,4,1,0.,24.0,0.,24.0
1986-01-26 10:27:57.200 ,4,0,0.,24.0,0.,24.0
1986-01-26 10:28:21.200 ,3,1,0.,24.0,0.,24.0
1986-01-26 10:28:45.200 ,3,0,0.,24.0,0.,24.0
1986-01-26 10:29:09.200 ,2,1,1.,24.0,0.,24.0
1986-01-26 10:29:33.200 ,2,0,0.,24.0,0.,24.0
1986-01-26 10:29:57.200 ,1,1,2.,24.0,0.,24.0
1986-01-26 10:30:21.200 ,1,0,0.,24.0,0.,24.0
1986-01-26 10:30:45.200 ,0,1,0.,24.0,0.,24.0
1986-01-26 10:31:09.200 ,0,0,0.,24.0,0.,24.0
1986-01-26 10:31:33.200 ,0,1,0.,24.0,0.,24.0
1986-01-26 10:31:57.200 ,0,0,0.,24.0,0.,24.0
1986-01-26 10:32:21.200 ,1,1,0.,24.0,0.,24.0
1986-01-26 10:32:45.200 ,1,0,0.,24.0,0.,24.0
1986-01-26 10:33:09.200 ,2,1,0.,24.0,0.,24.0
1986-01-26 10:33:33.200 ,2,0,0.,24.0,0.,24.0
1986-01-26 10:33:57.200 ,3,1,0.,24.0,0.,24.0
1986-01-26 10:34:21.200 ,3,0,0.,24.0,0.,24.0
1986-01-26 10:34:45.200 ,4,1,0.,24.0,0.,24.0
1986-01-26 10:35:09.200 ,4,0,0.,24.0,0.,24.0
1986-01-26 10:35:33.200 ,5,1,0.,24.0,0.,24.0
1986-01-26 10:35:57.200 ,5,0,0.,24.0,0.,24.0
1986-01-26 10:36:21.200 ,6,1,0.,24.0,0.,24.0
1986-01-26 10:36:45.200 ,6,0,0.,24.0,0.,24.0
1986-01-26 10:37:09.200 ,7,1,0.,24.0,0.,24.0
1986-01-26 10:37:33.200 ,7,0,0.,24.0,0.,24.0
1986-01-26 10:37:57.200 ,7,1,0.,24.0,0.,24.0
1986-01-26 10:38:21.200 ,7,0,1.,24.0,0.,24.0
1986-01-26 10:38:45.200 ,6,1,0.,24.0,0.,24.0
1986-01-26 10:39:09.200 ,6,0,1.,24.0,0.,24.0
1986-01-26 10:39:33.200 ,5,1,0.,24.0,0.,24.0
1986-01-26 10:39:57.200 ,5,0,0.,24.0,0.,24.0
1986-01-26 10:40:21.200 ,4,1,0.,24.0,0.,24.0
1986-01-26 10:40:45.200 ,4,0,0.,24.0,0.,24.0
1986-01-26 10:41:09.200 ,3,1,0.,24.0,0.,24.0
1986-01-26 10:41:33.200 ,3,0,0.,24.0,0.,24.0
1986-01-26 10:41:57.200 ,2,1,1.,24.0,0.,24.0
1986-01-26 10:42:21.200 ,2,0,1.,24.0,0.,24.0
1986-01-26 10:42:45.200 ,1,1,0.,24.0,0.,24.0
1986-01-26 10:43:09.200 ,1,0,0.,24.0,0.,24.0
1986-01-26 10:43:33.200 ,0,1,0.,24.0,0.,24.0
1986-01-26 10:43:57.200 ,0,0,0.,24.0,0.,24.0
1986-01-26 10:44:21.200 ,0,1,0.,24.0,0.,24.0
1986-01-26 10:44:45.200 ,0,0,1.,24.0,0.,24.0
1986-01-26 10:45:09.200 ,1,1,1.,24.0,0.,24.0
1986-01-26 10:45:33.200 ,1,0,0.,24.0,0.,24.0
1986-01-26 10:45:57.200 ,2,1,1.,24.0,0.,24.0
1986-01-26 10:46:21.200 ,2,0,0.,24.0,0.,24.0
1986-01-26 10:46:45.200 ,3,1,0.,24.0,0.,24.0
1986-01-26 10:47:09.200 ,3,0,0.,24.0,0.,24.0
1986-01-26 10:47:33.200 ,4,1,0.,24.0,0.,24.0
1986-01-26 10:47:57.200 ,4,0,0.,24.0,0.,24.0
1986-01-26 10:48:21.200 ,5,1,0.,24.0,0.,24.0
1986-01-26 10:48:45.200 ,5,0,0.,24.0,0.,24.0
1986-01-26 10:49:09.200 ,6,1,0.,24.0,0.,24.0
1986-01-26 10:49:33.200 ,6,0,0.,24.0,0.,24.0
1986-01-26 10:49:57.200 ,7,1,0.,24.0,0.,24.0
1986-01-26 10:50:21.200 ,7,0,0.,24.0,0.,24.0
1986-01-26 10:50:45.200 ,7,1,0.,24.0,0.,24.0
1986-01-26 10:51:09.200 ,7,0,0.,24.0,0.,24.0
1986-01-26 10:51:33.200 ,6,1,0.,24.0,0.,24.0
1986-01-26 10:51:57.200 ,6,0,0.,24.0,0.,24.0
1986-01-26 10:52:21.200 ,5,1,0.,24.0,0.,24.0
1986-01-26 10:52:45.200 ,5,0,1.,24.0,0.,24.0
1986-01-26 10:53:09.200 ,4,1,0.,24.0,0.,24.0
1986-01-26 10:53:33.200 ,4,0,0.,24.0,0.,24.0
1986-01-26 10:53:57.200 ,3,1,0.,24.0,0.,24.0
1986-01-26 10:54:21.200 ,3,0,0.,24.0,0.,24.0
1986-01-26 10:54:45.200 ,2,1,0.,24.0,0.,24.0
1986-01-26 10:55:09.200 ,2,0,0.,24.0,0.,24.0
1986-01-26 10:55:33.200 ,1,1,0.,24.0,0.,24.0
1986-01-26 10:55:57.200 ,1,0,0.,24.0,0.,24.0
1986-01-26 10:56:21.200 ,0,1,0.,24.0,0.,24.0
1986-01-26 10:56:45.200 ,0,0,0.,24.0,0.,24.0
1986-01-26 10:57:09.200 ,0,1,0.,24.0,0.,24.0
1986-01-26 10:57:33.200 ,0,0,0.,24.0,0.,24.0
1986-01-26 10:57:57.200 ,1,1,0.,24.0,0.,24.0
1986-01-26 10:58:21.200 ,1,0,2.,24.0,0.,24.0
1986-01-26 10:58:45.200 ,2,1,0.,24.0,0.,24.0
1986-01-26 10:59:09.200 ,2,0,0.,24.0,0.,24.0
1986-01-26 10:59:33.200 ,3,1,0.,24.0,0.,24.0
1986-01-26 10:59:57.200 ,3,0,1.,24.0,0.,24.0
1986-01-26 11:00:21.200 ,4,1,0.,24.0,0.,24.0
1986-01-26 11:00:45.200 ,4,0,0.,24.0,0.,24.0
1986-01-26 11:01:09.200 ,5,1,1.,24.0,0.,24.0
1986-01-26 11:01:33.200 ,5,0,1.,24.0,0.,24.0
1986-01-26 11:01:57.200 ,6,1,0.,24.0,0.,24.0
1986-01-26 11:02:21.200 ,6,0,0.,24.0,0.,24.0
1986-01-26 11:02:45.200 ,7,1,0.,24.0,0.,24.0
1986-01-26 11:03:09.200 ,7,0,0.,24.0,0.,24.0
1986-01-26 11:03:33.200 ,7,1,0.,24.0,0.,24.0
1986-01-26 11:03:57.200 ,7,0,0.,24.0,0.,24.0
1986-01-26 11:04:21.200 ,6,1,1.,24.0,0.,24.0
1986-01-26 11:04:45.200 ,6,0,0.,24.0,0.,24.0
1986-01-26 11:05:09.200 ,5,1,0.,24.0,0.,24.0
1986-01-26 11:05:33.200 ,5,0,0.,24.0,0.,24.0
1986-01-26 11:05:57.200 ,4,1,0.,24.0,0.,24.0
1986-01-26 11:06:21.200 ,4,0,0.,24.0,0.,24.0
1986-01-26 11:06:45.200 ,3,1,0.,24.0,0.,24.0
1986-01-26 11:07:09.200 ,3,0,0.,24.0,0.,24.0
1986-01-26 11:07:33.200 ,2,1,0.,24.0,0.,24.0
1986-01-26 11:07:57.200 ,2,0,0.,24.0,0.,24.0
1986-01-26 11:08:21.200 ,1,1,0.,24.0,0.,24.0
1986-01-26 11:08:45.200 ,1,0,0.,24.0,0.,24.0
1986-01-26 11:09:09.200 ,0,1,0.,24.0,0.,24.0
1986-01-26 11:09:33.200 ,0,0,0.,24.0,0.,24.0
1986-01-26 11:09:57.200 ,0,1,0.,24.0,0.,24.0
1986-01-26 11:10:21.200 ,0,0,0.,24.0,0.,24.0
1986-01-26 11:10:45.200 ,1,1,0.,24.0,0.,24.0
1986-01-26 11:11:09.200 ,1,0,0.,24.0,0.,24.0
1986-01-26 11:11:33.200 ,2,1,0.,24.0,0.,24.0
1986-01-26 11:11:57.200 ,2,0,0.,24.0,0.,24.0
1986-01-26 11:12:21.200 ,3,1,0.,24.0,0.,24.0
1986-01-26 11:12:45.200 ,3,0,0.,24.0,0.,24.0
1986-01-26 11:13:09.200 ,4,1,1.,24.0,0.,24.0
1986-01-26 11:13:33.200 ,4,0,0.,24.0,0.,24.0
1986-01-26 11:13:57.200 ,5,1,0.,24.0,0.,24.0
1986-01-26 11:14:21.200 ,5,0,1.,24.0,0.,24.0
1986-01-26 11:14:45.200 ,6,1,0.,24.0,0.,24.0
1986-01-26 11:15:09.200 ,6,0,0.,24.0,0.,24.0
1986-01-26 11:15:33.200 ,7,1,0.,24.0,0.,24.0
1986-01-26 11:15:57.200 ,7,0,0.,24.0,0.,24.0
1986-01-26 11:16:21.200 ,7,1,0.,24.0,0.,24.0
1986-01-26 11:16:45.200 ,7,0,0.,24.0,0.,24.0
1986-01-26 11:17:09.200 ,6,1,0.,24.0,0.,24.0
1986-01-26 11:17:33.200 ,6,0,0.,24.0,0.,24.0
1986-01-26 11:17:57.200 ,5,1,0.,24.0,0.,24.0
1986-01-26 11:18:21.200 ,5,0,0.,24.0,0.,24.0
1986-01-26 11:18:45.200 ,4,1,0.,24.0,0.,24.0
1986-01-26 11:19:09.200 ,4,0,0.,24.0,0.,24.0
1986-01-26 11:19:33.200 ,3,1,0.,24.0,0.,24.0
1986-01-26 11:19:57.200 ,3,0,0.,24.0,0.,24.0
1986-01-26 11:20:21.200 ,2,1,0.,24.0,0.,24.0
1986-01-26 11:20:45.200 ,2,0,0.,24.0,0.,24.0
1986-01-26 11:21:09.200 ,1,1,0.,24.0,0.,24.0
1986-01-26 11:21:33.200 ,1,0,0.,24.0,0.,24.0
1986-01-26 11:21:57.200 ,0,1,0.,24.0,0.,24.0
1986-01-26 11:22:21.200 ,0,0,0.,24.0,0.,24.0
1986-01-26 11:22:45.200 ,0,1,0.,24.0,0.,24.0
1986-01-26 11:23:09.200 ,0,0,0.,24.0,0.,24.0
1986-01-26 11:23:33.200 ,1,1,0.,24.0,0.,24.0
1986-01-26 11:23:57.200 ,1,0,0.,24.0,0.,24.0
1986-01-26 11:24:21.200 ,2,1,0.,24.0,0.,24.0
1986-01-26 11:24:45.200 ,2,0,0.,24.0,0.,24.0
1986-01-26 11:25:09.200 ,3,1,0.,24.0,0.,24.0
1986-01-26 11:25:33.200 ,3,0,0.,24.0,0.,24.0
1986-01-26 11:25:57.200 ,4,1,0.,24.0,0.,24.0
1986-01-26 11:26:21.200 ,4,0,0.,24.0,0.,24.0
1986-01-26 11:26:45.200 ,5,1,0.,24.0,0.,24.0
1986-01-26 11:27:09.200 ,5,0,0.,24.0,0.,24.0
1986-01-26 11:27:33.200 ,6,1,0.,24.0,0.,24.0
1986-01-26 11:27:57.200 ,6,0,0.,24.0,0.,24.0
1986-01-26 11:28:21.200 ,7,1,0.,24.0,0.,24.0
1986-01-26 11:28:45.200 ,7,0,0.,24.0,0.,24.0
1986-01-26 11:29:09.200 ,7,1,0.,24.0,0.,24.0
1986-01-26 11:29:33.200 ,7,0,0.,24.0,0.,24.0
1986-01-26 11:29:57.200 ,6,1,0.,24.0,0.,24.0
1986-01-26 11:30:21.200 ,6,0,0.,24.0,0.,24.0
1986-01-26 11:30:45.200 ,5,1,0.,24.0,0.,24.0
1986-01-26 11:31:09.200 ,5,0,0.,24.0,0.,24.0
1986-01-26 11:31:33.200 ,4,1,0.,24.0,0.,24.0
1986-01-26 11:31:57.200 ,4,0,0.,24.0,0.,24.0
1986-01-26 11:32:21.200 ,3,1,1.,24.0,0.,24.0
1986-01-26 11:32:45.200 ,3,0,1.,24.0,0.,24.0
1986-01-26 11:33:09.200 ,2,1,0.,24.0,0.,24.0
1986-01-26 11:33:33.200 ,2,0,0.,24.0,0.,24.0
1986-01-26 11:33:57.200 ,1,1,2.,24.0,0.,24.0
1986-01-26 11:34:21.200 ,1,0,0.,24.0,0.,24.0
1986-01-26 11:34:45.200 ,0,1,0.,24.0,0.,24.0
1986-01-26 11:35:09.200 ,0,0,0.,24.0,0.,24.0
1986-01-26 11:35:33.200 ,0,1,1.,24.0,0.,24.0
1986-01-26 11:35:57.200 ,0,0,0.,24.0,0.,24.0
1986-01-26 11:36:56.000 ,0,0,0.,24.0,0.,24.0
1986-01-26 11:37:09.200 ,2,1,0.,24.0,0.,24.0
1986-01-26 11:37:33.200 ,2,0,0.,24.0,0.,24.0
1986-01-26 11:37:57.200 ,3,1,0.,24.0,0.,24.0
1986-01-26 11:38:21.200 ,3,0,0.,24.0,0.,24.0
1986-01-26 11:38:45.200 ,4,1,0.,24.0,0.,24.0
1986-01-26 11:39:09.200 ,4,0,0.,24.0,0.,24.0
1986-01-26 11:39:33.200 ,5,1,0.,24.0,0.,24.0
1986-01-26 11:39:57.200 ,5,0,0.,24.0,0.,24.0
1986-01-26 11:40:21.200 ,6,1,1.,24.0,0.,24.0
1986-01-26 11:40:45.200 ,6,0,0.,24.0,0.,24.0
1986-01-26 11:41:09.200 ,7,1,0.,24.0,0.,24.0
1986-01-26 11:41:33.200 ,7,0,0.,24.0,0.,24.0
1986-01-26 11:41:57.200 ,7,1,0.,24.0,0.,24.0
1986-01-26 11:42:21.200 ,7,0,0.,24.0,0.,24.0
1986-01-26 11:42:45.200 ,6,1,0.,24.0,0.,24.0
1986-01-26 11:43:09.200 ,6,0,0.,24.0,0.,24.0
1986-01-26 11:43:33.200 ,5,1,0.,24.0,0.,24.0
1986-01-26 11:43:57.200 ,5,0,0.,24.0,0.,24.0
1986-01-26 11:44:21.200 ,4,1,1.,24.0,0.,24.0
1986-01-26 11:44:45.200 ,4,0,0.,24.0,0.,24.0
1986-01-26 11:45:09.200 ,3,1,0.,24.0,0.,24.0
1986-01-26 11:45:33.200 ,3,0,0.,24.0,0.,24.0
1986-01-26 11:45:57.200 ,2,1,0.,24.0,0.,24.0
1986-01-26 11:46:21.200 ,2,0,0.,24.0,0.,24.0
1986-01-26 11:46:45.200 ,1,1,0.,24.0,0.,24.0
1986-01-26 11:47:09.200 ,1,0,0.,24.0,0.,24.0
1986-01-26 11:47:33.200 ,0,1,1.,24.0,0.,24.0
1986-01-26 11:47:57.200 ,0,0,0.,24.0,0.,24.0
1986-01-26 11:48:21.200 ,0,1,0.,24.0,0.,24.0
1986-01-26 11:48:45.200 ,0,0,1.,24.0,0.,24.0
1986-01-26 11:49:09.200 ,1,1,1.,24.0,0.,24.0
1986-01-26 11:49:33.200 ,1,0,0.,24.0,0.,24.0
1986-01-26 11:49:57.200 ,2,1,0.,24.0,0.,24.0
1986-01-26 11:50:45.200 ,0,0,0.,24.0,0.,24.0
1986-01-26 11:51:09.200 ,0,0,0.,24.0,0.,24.0
1986-01-26 11:51:33.200 ,4,1,0.,24.0,0.,24.0
1986-01-26 11:51:57.200 ,4,0,0.,24.0,0.,24.0
1986-01-26 11:52:21.200 ,5,1,0.,24.0,0.,24.0
1986-01-26 11:52:45.200 ,5,0,0.,24.0,0.,24.0
1986-01-26 11:53:09.200 ,6,1,0.,24.0,0.,24.0
1986-01-26 11:53:33.200 ,6,0,0.,24.0,0.,24.0
1986-01-26 11:53:57.200 ,7,1,0.,24.0,0.,24.0
1986-01-26 11:54:21.200 ,7,0,0.,24.0,0.,24.0
1986-01-26 11:54:45.200 ,7,1,0.,24.0,0.,24.0
1986-01-26 11:55:09.200 ,7,0,0.,24.0,0.,24.0
1986-01-26 11:55:33.190 ,6,1,1.,24.0,0.,24.0
1986-01-26 11:55:57.190 ,6,0,0.,24.0,0.,24.0
1986-01-26 11:56:21.190 ,5,1,0.,24.0,0.,24.0
1986-01-26 11:56:45.190 ,5,0,0.,24.0,0.,24.0
1986-01-26 11:57:09.190 ,4,1,0.,24.0,0.,24.0
1986-01-26 11:57:33.190 ,4,0,0.,24.0,0.,24.0
1986-01-26 11:57:57.190 ,3,1,0.,24.0,0.,24.0
1986-01-26 11:58:21.190 ,3,0,1.,24.0,0.,24.0
1986-01-26 11:58:45.190 ,2,1,0.,24.0,0.,24.0
1986-01-26 11:59:09.190 ,2,0,0.,24.0,0.,24.0
1986-01-26 11:59:33.190 ,1,1,0.,24.0,0.,24.0
1986-01-26 11:59:57.190 ,1,0,0.,24.0,0.,24.0
1986-01-26 12:00:21.190 ,0,1,0.,24.0,0.,24.0
